Regional Weather Roundup
Issued by NWS Kansas City/Pleasant Hill, MO

Home | Current Version | Previous Version | Text Only | Print | Product List | Glossary On
Versions: 1 2 3 4 5 6 7 8 9 10 11 12 13 14 15 16 17 18 19 20 21 22 23 24 25 26 27 28 29 30 31 32 33 34 35 36 37 38 39 40 41 42 43 44 45 46 47 48 49 50
000
ASUS43 KEAX 280510
RWREAX

WEATHER ROUNDUP FOR EASTERN KANSAS AND NORTHWEST MISSOURI
NATIONAL WEATHER SERVICE KANSAS CITY/PLEASANT HILL MO
1200 AM CDT TUE JUL 28 2015

KSZ040-057-103>105-MOZ028-029-037-043-280600-
...KANSAS CITY METROPOLITAN AREA...

CITY           SKY/WX    TMP DP  RH WIND       PRES   REMARKS
K.C. INTL      PTCLDY    80  75  84 SE10      29.90S
K.C. DOWNTOWN  CLEAR     83  77  82 E8        29.88F HX  92
LEES SUMMIT    CLEAR     83  74  74 SE6       29.92S
OLATHE - IXD   CLEAR     81  74  79 S7        29.91F
OLATHE - OJC   CLEAR     80  74  81 S6        29.90F
LAWRENCE       CLEAR     77  73  87 SE6       29.89S

$$

MOZ001>008-011>017-020>025-030>033-038>040-044>046-053-054-280600-
...NORTHERN AND CENTRAL MISSOURI...

CITY           SKY/WX    TMP DP  RH WIND       PRES   REMARKS
ST. JOSEPH     CLEAR     77  73  87 SE5       29.89S
MOSBY          CLEAR     77  70  78 E3        29.91S
WARRENSBURG    PTCLDY    79  73  83 E8        29.91S
WHITEMAN AFB   PTCLDY    78  73  83 E8        29.91S
CLINTON          N/A     82  79  89 CALM      29.91F HX  93
SEDALIA        PTCLDY    79  72  79 E7        29.94F
WARSAW         NOT AVBL
CHILLICOTHE      N/A     77  70  79 VRB3      29.93S
KIRKSVILLE     CLEAR     73  70  90 SE7       29.95S

$$

MOZ041-047>049-056>058-063>065-088>090-097-280600-
...EASTERN AND SOUTHERN MISSOURI...

CITY           SKY/WX    TMP DP  RH WIND       PRES   REMARKS
ST. LOUIS INTL CLOUDY    79  69  71 VRB6      29.96S
SPIRIT OF STL  CLOUDY    77  72  84 S5        29.94F
COLUMBIA       CLEAR     74  71  91 SE9       29.96S
JEFFERSON CITY CLEAR     77  70  79 E6        29.94S
ROLLA          LGT RAIN  74  71  91 SE14      29.96F
OSAGE BEACH    MOCLDY    81  75  83 E7        29.96R
SPRINGFIELD    CLEAR     82  75  79 S10       29.96F
BRANSON        MOCLDY    77  75  94 CALM      29.99S
JOPLIN         CLEAR     82  75  79 SE6       29.93F
WEST PLAINS    PTCLDY    78  72  81 S3        29.99F

$$

IAZ060-094-KSZ022-034>040-054-083-096-NEZ052-066-093-280600-
...KANSAS...SOUTHEAST NEBRASKA AND IOWA...

CITY           SKY/WX    TMP DP  RH WIND       PRES   REMARKS
TOPEKA         CLEAR     84  73  69 S10       29.87F HX  90
MANHATTAN      CLEAR     82  72  71 S6        29.85S
EMPORIA        CLEAR     81  73  76 S14       29.88F
CHANUTE        CLEAR     82  75  79 S8        29.91S
WICHITA        PTCLDY    84  67  56 S16       29.88R
OMAHA          MOCLDY    78  71  79 SE16      29.85S
LINCOLN        CLEAR     80  76  87 SE12      29.83S
FALLS CITY     CLEAR     76  73  91 SE8       29.86F
LAMONI         CLEAR     75  70  84 SE8       29.92S
DES MOINES     PTCLDY    74  69  85 SE6       29.91S

$$



USA.gov is the U.S. government's official web portal to all federal, state and local government web resources and services.